| time (UTC) | temp F | wind direction | speed MPH | gust MPH | rain 1hr in | rain 24hr in | rain mn in | humidity % | barometer mb |
| 20260507073723 | 58 | 291 | 1.0 | 3.0 | 0.00 | 0.00 | 0.00 | 54 | 1018.3 |
| 20260507073349 | 58 | 251 | 3.0 | 6.0 | 0.00 | 0.00 | 0.00 | 54 | 1018.3 |
| 20260507072351 | 57 | 215 | 0.0 | 0.0 | 0.00 | 0.00 | 0.00 | 57 | 1018.4 |
| 20260507072230 | 57 | 55 | 0.0 | 0.0 | 0.00 | 0.00 | 0.00 | 57 | 1018.3 |
| 20260507071352 | 56 | 312 | 0.0 | 0.0 | 0.00 | 0.00 | 0.00 | 57 | 1018.3 |
| 20260507070726 | 55 | 330 | 1.0 | 1.0 | 0.00 | 0.00 | 0.00 | 58 | 1018.4 |
| 20260507070352 | 55 | 246 | 1.0 | 1.0 | 0.00 | 0.00 | 0.00 | 59 | 1018.4 |
| 20260507065344 | 55 | 353 | 1.0 | 3.0 | 0.00 | 0.00 | 0.00 | 59 | 1018.4 |
| 20260507065223 | 55 | 316 | 1.0 | 2.0 | 0.00 | 0.00 | 0.00 | 58 | 1018.4 |
| 20260507064345 | 55 | 323 | 2.0 | 2.0 | 0.00 | 0.00 | 0.00 | 59 | 1018.3 |
| 20260507063729 | 55 | 327 | 1.0 | 2.0 | 0.00 | 0.00 | 0.00 | 60 | 1018.3 |
| 20260507063345 | 54 | 357 | 1.0 | 2.0 | 0.00 | 0.00 | 0.00 | 61 | 1018.3 |
| 20260507062347 | 54 | 0 | 1.0 | 2.0 | 0.00 | 0.00 | 0.00 | 62 | 1018.4 |
| 20260507062226 | 54 | 3 | 1.0 | 3.0 | 0.00 | 0.00 | 0.00 | 62 | 1018.3 |
| 20260507061348 | 53 | 318 | 1.0 | 1.0 | 0.00 | 0.00 | 0.00 | 64 | 1018.3 |
| 20260507060723 | 53 | 316 | 1.0 | 2.0 | 0.00 | 0.00 | 0.00 | 63 | 1018.4 |
| 20260507060349 | 52 | 9 | 0.0 | 0.0 | 0.00 | 0.00 | 0.00 | 65 | 1018.3 |
| 20260507055350 | 52 | 253 | 0.0 | 0.0 | 0.00 | 0.00 | 0.00 | 67 | 1018.4 |
| 20260507055229 | 51 | 270 | 0.0 | 1.0 | 0.00 | 0.00 | 0.00 | 67 | 1018.4 |
| 20260507054352 | 51 | 301 | 2.0 | 3.0 | 0.00 | 0.00 | 0.00 | 67 | 1018.3 |
| 20260507053726 | 51 | 322 | 1.0 | 3.0 | 0.00 | 0.00 | 0.00 | 69 | 1018.3 |
| 20260507053352 | 50 | 266 | 0.0 | 0.0 | 0.00 | 0.00 | 0.00 | 69 | 1018.2 |
| 20260507052344 | 49 | 281 | 1.0 | 1.0 | 0.00 | 0.00 | 0.00 | 70 | 1018.3 |
| 20260507052223 | 49 | 278 | 2.0 | 3.0 | 0.00 | 0.00 | 0.00 | 70 | 1018.3 |
| 20260507051345 | 49 | 280 | 1.0 | 1.0 | 0.00 | 0.00 | 0.00 | 71 | 1018.2 |
| 20260507050729 | 49 | 280 | 0.0 | 1.0 | 0.00 | 0.00 | 0.00 | 72 | 1018.1 |
| 20260507050345 | 49 | 293 | 0.0 | 2.0 | 0.00 | 0.00 | 0.00 | 73 | 1018.0 |
| 20260507045346 | 48 | 289 | 0.0 | 0.0 | 0.00 | 0.00 | 0.00 | 73 | 1018.0 |
| 20260507045225 | 48 | 303 | 0.0 | 0.0 | 0.00 | 0.00 | 0.00 | 74 | 1018.0 |
| 20260507044347 | 48 | 291 | 0.0 | 0.0 | 0.00 | 0.00 | 0.00 | 74 | 1017.9 |
| 20260507043730 | 48 | 319 | 0.0 | 0.0 | 0.00 | 0.00 | 0.00 | 73 | 1017.9 |
| 20260507043347 | 47 | 150 | 0.0 | 0.0 | 0.00 | 0.00 | 0.00 | 74 | 1017.9 |
| 20260507042348 | 47 | 300 | 0.0 | 0.0 | 0.00 | 0.00 | 0.00 | 74 | 1017.7 |
| 20260507042227 | 47 | 300 | 0.0 | 0.0 | 0.00 | 0.00 | 0.00 | 74 | 1017.7 |
| 20260507041349 | 46 | 300 | 0.0 | 0.0 | 0.00 | 0.00 | 0.00 | 74 | 1017.7 |
| 20260507040723 | 46 | 300 | 0.0 | 0.0 | 0.00 | 0.00 | 0.00 | 74 | 1017.8 |
| 20260507040349 | 46 | 300 | 0.0 | 0.0 | 0.00 | 0.00 | 0.00 | 73 | 1017.7 |
| 20260507035351 | 46 | 198 | 1.0 | 3.0 | 0.00 | 0.00 | 0.00 | 74 | 1017.6 |
| 20260507035229 | 46 | 176 | 1.0 | 2.0 | 0.00 | 0.00 | 0.00 | 74 | 1017.6 |
| 20260507034352 | 45 | 173 | 2.0 | 2.0 | 0.00 | 0.00 | 0.00 | 74 | 1017.6 |
| 20260507033726 | 45 | 192 | 2.0 | 3.0 | 0.00 | 0.00 | 0.00 | 75 | 1017.6 |
| 20260507033352 | 45 | 193 | 2.0 | 3.0 | 0.00 | 0.00 | 0.00 | 75 | 1017.6 |
| 20260507032344 | 45 | 163 | 2.0 | 6.0 | 0.00 | 0.00 | 0.00 | 75 | 1017.5 |
| 20260507032223 | 45 | 178 | 2.0 | 3.0 | 0.00 | 0.00 | 0.00 | 75 | 1017.5 |
| 20260507031345 | 45 | 151 | 1.0 | 3.0 | 0.00 | 0.00 | 0.00 | 75 | 1017.4 |
| 20260507030728 | 45 | 105 | 1.0 | 1.0 | 0.00 | 0.00 | 0.00 | 75 | 1017.4 |
| 20260507030344 | 45 | 170 | 0.0 | 1.0 | 0.00 | 0.00 | 0.00 | 75 | 1017.4 |
| 20260507025346 | 45 | 143 | 1.0 | 2.0 | 0.00 | 0.00 | 0.00 | 75 | 1017.4 |
| 20260507025225 | 45 | 147 | 1.0 | 2.0 | 0.00 | 0.00 | 0.00 | 75 | 1017.4 |
| 20260507024347 | 45 | 144 | 1.0 | 3.0 | 0.00 | 0.00 | 0.00 | 75 | 1017.4 |
| 20260507023731 | 45 | 143 | 0.0 | 0.0 | 0.00 | 0.00 | 0.00 | 75 | 1017.2 |
| 20260507023348 | 45 | 155 | 0.0 | 1.0 | 0.00 | 0.00 | 0.00 | 75 | 1017.2 |
| 20260507022349 | 45 | 187 | 1.0 | 3.0 | 0.00 | 0.00 | 0.00 | 76 | 1017.2 |
| 20260507022228 | 45 | 201 | 1.0 | 2.0 | 0.00 | 0.00 | 0.00 | 76 | 1017.2 |
| 20260507021351 | 45 | 192 | 1.0 | 2.0 | 0.00 | 0.00 | 0.00 | 77 | 1017.1 |
| 20260507020725 | 45 | 127 | 0.0 | 2.0 | 0.00 | 0.00 | 0.00 | 78 | 1017.1 |
| 20260507020351 | 45 | 107 | 0.0 | 1.0 | 0.00 | 0.00 | 0.00 | 78 | 1017.1 |
| 20260507015342 | 45 | 148 | 1.0 | 1.0 | 0.00 | 0.00 | 0.00 | 78 | 1017.1 |
| 20260507015231 | 45 | 152 | 1.0 | 2.0 | 0.00 | 0.00 | 0.00 | 78 | 1017.1 |
| 20260507014344 | 45 | 151 | 0.0 | 1.0 | 0.00 | 0.00 | 0.00 | 78 | 1017.1 |
| 20260507013728 | 45 | 179 | 1.0 | 1.0 | 0.00 | 0.00 | 0.00 | 79 | 1017.1 |
| 20260507013344 | 45 | 148 | 1.0 | 1.0 | 0.00 | 0.00 | 0.00 | 78 | 1017.1 |
| 20260507012346 | 45 | 155 | 0.0 | 0.0 | 0.00 | 0.00 | 0.00 | 79 | 1017.0 |
| 20260507012225 | 45 | 159 | 0.0 | 0.0 | 0.00 | 0.00 | 0.00 | 79 | 1017.0 |
| 20260507011347 | 45 | 172 | 0.0 | 0.0 | 0.00 | 0.00 | 0.00 | 79 | 1016.9 |
| 20260507010731 | 45 | 131 | 0.0 | 0.0 | 0.00 | 0.00 | 0.00 | 79 | 1016.9 |
| 20260507010347 | 45 | 141 | 0.0 | 0.0 | 0.00 | 0.00 | 0.00 | 79 | 1016.9 |
| 20260507005349 | 45 | 189 | 0.0 | 0.0 | 0.00 | 0.00 | 0.00 | 79 | 1017.0 |
| 20260507005228 | 45 | 176 | 0.0 | 0.0 | 0.00 | 0.00 | 0.00 | 79 | 1017.0 |
| 20260507004350 | 45 | 143 | 0.0 | 0.0 | 0.00 | 0.00 | 0.00 | 80 | 1017.0 |
| 20260507003724 | 45 | 143 | 0.0 | 0.0 | 0.00 | 0.00 | 0.00 | 80 | 1017.0 |
| 20260507003351 | 45 | 210 | 0.0 | 0.0 | 0.00 | 0.00 | 0.00 | 80 | 1017.0 |
| 20260507002342 | 45 | 255 | 0.0 | 0.0 | 0.00 | 0.00 | 0.00 | 79 | 1016.9 |
| 20260507002231 | 45 | 255 | 0.0 | 0.0 | 0.00 | 0.00 | 0.00 | 79 | 1017.0 |
| 20260507001343 | 45 | 255 | 0.0 | 0.0 | 0.00 | 0.00 | 0.00 | 79 | 1016.9 |
| 20260507000728 | 45 | 255 | 0.0 | 0.0 | 0.00 | 0.00 | 0.00 | 78 | 1016.8 |
| 20260507000344 | 45 | 255 | 0.0 | 0.0 | 0.00 | 0.00 | 0.00 | 78 | 1016.8 |
| 20260506235346 | 45 | 249 | 0.0 | 0.0 | 0.00 | 0.00 | 0.00 | 79 | 1016.8 |
| 20260506235224 | 45 | 168 | 0.0 | 0.0 | 0.00 | 0.00 | 0.00 | 79 | 1016.7 |
| 20260506234347 | 45 | 148 | 0.0 | 0.0 | 0.00 | 0.00 | 0.00 | 78 | 1016.7 |
| 20260506233731 | 45 | 148 | 0.0 | 0.0 | 0.00 | 0.00 | 0.00 | 77 | 1016.6 |
| 20260506233347 | 45 | 172 | 0.0 | 0.0 | 0.00 | 0.00 | 0.00 | 77 | 1016.6 |
| 20260506232349 | 46 | 172 | 0.0 | 0.0 | 0.00 | 0.00 | 0.00 | 77 | 1016.5 |
| 20260506232228 | 46 | 172 | 0.0 | 0.0 | 0.00 | 0.00 | 0.00 | 76 | 1016.5 |
| 20260506231350 | 46 | 170 | 0.0 | 0.0 | 0.00 | 0.00 | 0.00 | 76 | 1016.5 |
| 20260506230724 | 46 | 277 | 0.0 | 0.0 | 0.00 | 0.00 | 0.00 | 77 | 1016.5 |
| 20260506230350 | 46 | 255 | 0.0 | 0.0 | 0.00 | 0.00 | 0.00 | 77 | 1016.5 |
| 20260506225352 | 47 | 255 | 0.0 | 0.0 | 0.00 | 0.00 | 0.00 | 76 | 1016.4 |
| 20260506225231 | 47 | 255 | 0.0 | 0.0 | 0.00 | 0.00 | 0.00 | 75 | 1016.4 |
| 20260506224343 | 47 | 266 | 0.0 | 1.0 | 0.00 | 0.00 | 0.00 | 74 | 1016.3 |
| 20260506223728 | 47 | 258 | 0.0 | 0.0 | 0.00 | 0.00 | 0.00 | 73 | 1016.3 |
| 20260506223344 | 47 | 258 | 0.0 | 0.0 | 0.00 | 0.00 | 0.00 | 72 | 1016.3 |
| 20260506222346 | 48 | 261 | 0.0 | 1.0 | 0.00 | 0.00 | 0.00 | 71 | 1016.3 |
| 20260506222224 | 48 | 246 | 0.0 | 0.0 | 0.00 | 0.00 | 0.00 | 70 | 1016.3 |
| 20260506221346 | 48 | 219 | 0.0 | 0.0 | 0.00 | 0.00 | 0.00 | 70 | 1016.4 |
| 20260506220731 | 48 | 253 | 0.0 | 0.0 | 0.00 | 0.00 | 0.00 | 71 | 1016.5 |
| 20260506220347 | 48 | 285 | 0.0 | 0.0 | 0.00 | 0.00 | 0.00 | 71 | 1016.5 |
| 20260506215349 | 49 | 153 | 0.0 | 0.0 | 0.00 | 0.00 | 0.00 | 68 | 1016.5 |
| 20260506215228 | 49 | 154 | 0.0 | 0.0 | 0.00 | 0.00 | 0.00 | 68 | 1016.5 |
| 20260506214350 | 48 | 210 | 1.0 | 2.0 | 0.00 | 0.00 | 0.00 | 71 | 1016.5 |
| 20260506213724 | 48 | 195 | 1.0 | 2.0 | 0.00 | 0.00 | 0.00 | 71 | 1016.5 |
| 20260506213350 | 48 | 188 | 0.0 | 1.0 | 0.00 | 0.00 | 0.00 | 72 | 1016.4 |
| 20260506212352 | 48 | 152 | 1.0 | 2.0 | 0.00 | 0.00 | 0.00 | 72 | 1016.4 |
| 20260506212231 | 48 | 147 | 0.0 | 1.0 | 0.00 | 0.00 | 0.00 | 72 | 1016.3 |
| 20260506211343 | 48 | 128 | 0.0 | 1.0 | 0.00 | 0.00 | 0.00 | 72 | 1016.4 |
| 20260506210726 | 48 | 151 | 1.0 | 1.0 | 0.00 | 0.00 | 0.00 | 72 | 1016.3 |
| 20260506210342 | 49 | 154 | 1.0 | 1.0 | 0.00 | 0.00 | 0.00 | 71 | 1016.3 |
| 20260506205344 | 49 | 112 | 0.0 | 0.0 | 0.00 | 0.00 | 0.00 | 71 | 1016.3 |
| 20260506205223 | 49 | 112 | 0.0 | 0.0 | 0.00 | 0.00 | 0.00 | 70 | 1016.3 |
| 20260506204345 | 49 | 132 | 1.0 | 1.0 | 0.00 | 0.00 | 0.00 | 70 | 1016.4 |
| 20260506203730 | 49 | 215 | 0.0 | 1.0 | 0.00 | 0.00 | 0.00 | 70 | 1016.4 |
| 20260506203346 | 49 | 224 | 0.0 | 0.0 | 0.00 | 0.00 | 0.00 | 70 | 1016.3 |
| 20260506202347 | 49 | 200 | 0.0 | 0.0 | 0.00 | 0.00 | 0.00 | 70 | 1016.2 |
| 20260506202226 | 49 | 200 | 0.0 | 0.0 | 0.00 | 0.00 | 0.00 | 70 | 1016.2 |
| 20260506201349 | 49 | 170 | 0.0 | 1.0 | 0.00 | 0.00 | 0.00 | 70 | 1016.2 |
| 20260506200723 | 49 | 162 | 0.0 | 0.0 | 0.00 | 0.00 | 0.00 | 70 | 1016.3 |
| 20260506200349 | 49 | 134 | 0.0 | 0.0 | 0.00 | 0.00 | 0.00 | 70 | 1016.3 |
| 20260506195351 | 50 | 182 | 0.0 | 0.0 | 0.00 | 0.00 | 0.00 | 70 | 1016.3 |
| 20260506195230 | 50 | 182 | 0.0 | 0.0 | 0.00 | 0.00 | 0.00 | 69 | 1016.4 |
| 20260506194352 | 50 | 170 | 0.0 | 0.0 | 0.00 | 0.00 | 0.00 | 69 | 1016.4 |
| 20260506193726 | 50 | 161 | 0.0 | 1.0 | 0.00 | 0.00 | 0.00 | 69 | 1016.4 |
| 20260506193342 | 50 | 193 | 0.0 | 1.0 | 0.00 | 0.00 | 0.00 | 69 | 1016.3 |
| 20260506192344 | 50 | 179 | 0.0 | 0.0 | 0.00 | 0.00 | 0.00 | 69 | 1016.3 |
| 20260506192223 | 50 | 179 | 0.0 | 0.0 | 0.00 | 0.00 | 0.00 | 69 | 1016.2 |
| 20260506191345 | 50 | 104 | 0.0 | 1.0 | 0.00 | 0.00 | 0.00 | 69 | 1016.2 |
| 20260506190729 | 50 | 197 | 0.0 | 0.0 | 0.00 | 0.00 | 0.00 | 69 | 1016.2 |
| 20260506190345 | 50 | 191 | 1.0 | 3.0 | 0.00 | 0.00 | 0.00 | 69 | 1016.2 |
| 20260506185347 | 51 | 132 | 1.0 | 1.0 | 0.00 | 0.00 | 0.00 | 68 | 1016.2 |
| 20260506185226 | 51 | 109 | 0.0 | 1.0 | 0.00 | 0.00 | 0.00 | 68 | 1016.1 |
| 20260506184348 | 51 | 189 | 0.0 | 0.0 | 0.00 | 0.00 | 0.00 | 67 | 1016.1 |
| 20260506183723 | 51 | 217 | 0.0 | 0.0 | 0.00 | 0.00 | 0.00 | 67 | 1016.1 |
| 20260506183349 | 51 | 217 | 0.0 | 0.0 | 0.00 | 0.00 | 0.00 | 66 | 1016.1 |
| 20260506182351 | 51 | 238 | 1.0 | 2.0 | 0.00 | 0.00 | 0.00 | 66 | 1016.0 |
| 20260506182229 | 51 | 245 | 0.0 | 2.0 | 0.00 | 0.00 | 0.00 | 66 | 1016.0 |
| 20260506181352 | 51 | 261 | 1.0 | 3.0 | 0.00 | 0.00 | 0.00 | 65 | 1015.9 |
| 20260506180726 | 52 | 257 | 0.0 | 0.0 | 0.00 | 0.00 | 0.00 | 64 | 1015.9 |
| 20260506180342 | 52 | 258 | 1.0 | 3.0 | 0.00 | 0.00 | 0.00 | 64 | 1015.9 |
| 20260506175344 | 52 | 243 | 1.0 | 1.0 | 0.00 | 0.00 | 0.00 | 63 | 1015.8 |
| 20260506175223 | 52 | 257 | 0.0 | 3.0 | 0.00 | 0.00 | 0.00 | 63 | 1015.8 |
| 20260506174345 | 52 | 237 | 1.0 | 3.0 | 0.00 | 0.00 | 0.00 | 62 | 1015.8 |
| 20260506173729 | 52 | 220 | 1.0 | 3.0 | 0.00 | 0.00 | 0.00 | 62 | 1015.7 |
| 20260506173345 | 52 | 255 | 1.0 | 2.0 | 0.00 | 0.00 | 0.00 | 61 | 1015.6 |
| 20260506172347 | 53 | 254 | 2.0 | 3.0 | 0.00 | 0.00 | 0.00 | 60 | 1015.5 |
| 20260506172226 | 53 | 258 | 0.0 | 3.0 | 0.00 | 0.00 | 0.00 | 60 | 1015.4 |
| 20260506171348 | 53 | 249 | 2.0 | 5.0 | 0.00 | 0.00 | 0.00 | 59 | 1015.4 |
| 20260506170722 | 53 | 250 | 1.0 | 3.0 | 0.00 | 0.00 | 0.00 | 59 | 1015.4 |
| 20260506170349 | 53 | 240 | 1.0 | 1.0 | 0.00 | 0.00 | 0.00 | 59 | 1015.3 |
| 20260506165350 | 54 | 261 | 0.0 | 1.0 | 0.00 | 0.00 | 0.00 | 58 | 1015.3 |
| 20260506165229 | 54 | 275 | 2.0 | 3.0 | 0.00 | 0.00 | 0.00 | 58 | 1015.3 |
| 20260506164351 | 54 | 279 | 2.0 | 5.0 | 0.00 | 0.00 | 0.00 | 56 | 1015.2 |
| 20260506163726 | 55 | 274 | 2.0 | 5.0 | 0.00 | 0.00 | 0.00 | 56 | 1015.1 |
| 20260506163342 | 55 | 231 | 1.0 | 1.0 | 0.00 | 0.00 | 0.00 | 55 | 1015.1 |
| 20260506162343 | 55 | 155 | 0.0 | 0.0 | 0.00 | 0.00 | 0.00 | 56 | 1015.1 |
| 20260506162222 | 55 | 317 | 0.0 | 1.0 | 0.00 | 0.00 | 0.00 | 56 | 1015.1 |
| 20260506161345 | 56 | 241 | 1.0 | 5.0 | 0.00 | 0.00 | 0.00 | 55 | 1015.0 |
| 20260506160728 | 56 | 265 | 5.0 | 6.0 | 0.00 | 0.00 | 0.00 | 55 | 1014.9 |
| 20260506160344 | 56 | 268 | 2.0 | 6.0 | 0.00 | 0.00 | 0.00 | 55 | 1014.9 |
| 20260506155346 | 55 | 289 | 6.0 | 8.0 | 0.00 | 0.00 | 0.00 | 56 | 1014.9 |
| 20260506155225 | 55 | 304 | 2.0 | 8.0 | 0.00 | 0.00 | 0.00 | 56 | 1014.9 |
| 20260506154347 | 55 | 266 | 2.0 | 2.0 | 0.00 | 0.00 | 0.00 | 57 | 1014.9 |
| 20260506153721 | 55 | 288 | 2.0 | 6.0 | 0.00 | 0.00 | 0.00 | 57 | 1014.9 |
| 20260506153347 | 55 | 288 | 3.0 | 6.0 | 0.00 | 0.00 | 0.00 | 56 | 1014.9 |
| 20260506152349 | 56 | 281 | 5.0 | 12.0 | 0.00 | 0.00 | 0.00 | 55 | 1014.9 |
| 20260506152228 | 56 | 305 | 7.0 | 14.0 | 0.00 | 0.00 | 0.00 | 55 | 1014.8 |
| 20260506151350 | 57 | 296 | 3.0 | 5.0 | 0.00 | 0.00 | 0.00 | 54 | 1014.7 |
| 20260506150724 | 57 | 260 | 2.0 | 3.0 | 0.00 | 0.00 | 0.00 | 55 | 1014.7 |
| 20260506150351 | 56 | 268 | 2.0 | 5.0 | 0.00 | 0.00 | 0.00 | 56 | 1014.7 |
| 20260506145342 | 56 | 298 | 3.0 | 9.0 | 0.00 | 0.00 | 0.00 | 56 | 1014.8 |
| 20260506145221 | 56 | 309 | 3.0 | 5.0 | 0.00 | 0.00 | 0.00 | 55 | 1014.8 |
| 20260506144343 | 56 | 296 | 5.0 | 8.0 | 0.00 | 0.00 | 0.00 | 55 | 1014.7 |
| 20260506143728 | 56 | 303 | 3.0 | 6.0 | 0.00 | 0.00 | 0.00 | 56 | 1014.7 |
| 20260506143344 | 57 | 287 | 3.0 | 10.0 | 0.00 | 0.00 | 0.00 | 55 | 1014.7 |
| 20260506142345 | 56 | 266 | 3.0 | 9.0 | 0.00 | 0.00 | 0.00 | 57 | 1014.8 |
| 20260506142224 | 56 | 279 | 6.0 | 7.0 | 0.00 | 0.00 | 0.00 | 57 | 1014.8 |
| 20260506141347 | 56 | 283 | 3.0 | 6.0 | 0.00 | 0.00 | 0.00 | 56 | 1014.8 |
| 20260506140721 | 56 | 269 | 3.0 | 8.0 | 0.00 | 0.00 | 0.00 | 57 | 1014.8 |
| 20260506140347 | 56 | 270 | 5.0 | 10.0 | 0.00 | 0.00 | 0.00 | 57 | 1014.8 |
| 20260506135349 | 56 | 306 | 3.0 | 5.0 | 0.00 | 0.00 | 0.00 | 58 | 1014.7 |
| 20260506135228 | 56 | 290 | 1.0 | 6.0 | 0.00 | 0.00 | 0.00 | 58 | 1014.7 |
| 20260506134350 | 55 | 233 | 5.0 | 7.0 | 0.00 | 0.00 | 0.00 | 59 | 1014.7 |
| 20260506133724 | 55 | 270 | 3.0 | 6.0 | 0.00 | 0.00 | 0.00 | 58 | 1014.8 |
| 20260506133350 | 55 | 266 | 2.0 | 3.0 | 0.00 | 0.00 | 0.00 | 59 | 1014.8 |
| 20260506132342 | 56 | 296 | 3.0 | 6.0 | 0.00 | 0.00 | 0.00 | 58 | 1014.8 |
| 20260506132221 | 56 | 287 | 2.0 | 8.0 | 0.00 | 0.00 | 0.00 | 58 | 1014.8 |
| 20260506131343 | 56 | 254 | 5.0 | 6.0 | 0.00 | 0.00 | 0.00 | 57 | 1014.7 |
| 20260506130727 | 56 | 254 | 0.0 | 8.0 | 0.00 | 0.00 | 0.00 | 57 | 1014.7 |
| 20260506130343 | 56 | 226 | 2.0 | 3.0 | 0.00 | 0.00 | 0.00 | 58 | 1014.8 |
| 20260506125345 | 56 | 275 | 2.0 | 5.0 | 0.00 | 0.00 | 0.00 | 60 | 1014.8 |
| 20260506125224 | 56 | 284 | 3.0 | 7.0 | 0.00 | 0.00 | 0.00 | 59 | 1014.8 |
| 20260506124346 | 55 | 291 | 3.0 | 5.0 | 0.00 | 0.00 | 0.00 | 61 | 1014.9 |
| 20260506123721 | 54 | 223 | 3.0 | 6.0 | 0.00 | 0.00 | 0.00 | 62 | 1014.9 |
| 20260506123347 | 54 | 295 | 3.0 | 6.0 | 0.00 | 0.00 | 0.00 | 62 | 1014.9 |
| 20260506122349 | 54 | 292 | 5.0 | 6.0 | 0.00 | 0.00 | 0.00 | 61 | 1014.9 |
| 20260506122227 | 55 | 283 | 6.0 | 9.0 | 0.00 | 0.00 | 0.00 | 60 | 1015.0 |
| 20260506121350 | 55 | 265 | 6.0 | 8.0 | 0.00 | 0.00 | 0.00 | 59 | 1015.0 |
| 20260506120724 | 55 | 246 | 2.0 | 6.0 | 0.00 | 0.00 | 0.00 | 60 | 1015.0 |
| 20260506120350 | 55 | 291 | 6.0 | 9.0 | 0.00 | 0.00 | 0.00 | 59 | 1015.0 |
| 20260506115342 | 55 | 278 | 6.0 | 8.0 | 0.00 | 0.00 | 0.00 | 60 | 1015.1 |
| 20260506115221 | 55 | 302 | 5.0 | 10.0 | 0.00 | 0.00 | 0.00 | 60 | 1015.1 |
| 20260506114343 | 55 | 266 | 1.0 | 2.0 | 0.00 | 0.00 | 0.00 | 60 | 1015.1 |
| 20260506113727 | 54 | 288 | 1.0 | 6.0 | 0.00 | 0.00 | 0.00 | 61 | 1015.2 |
| 20260506113343 | 54 | 298 | 3.0 | 7.0 | 0.00 | 0.00 | 0.00 | 61 | 1015.2 |
| 20260506112345 | 54 | 280 | 3.0 | 6.0 | 0.00 | 0.00 | 0.00 | 60 | 1015.3 |
| 20260506112224 | 54 | 292 | 1.0 | 3.0 | 0.00 | 0.00 | 0.00 | 60 | 1015.3 |
| 20260506111346 | 55 | 306 | 3.0 | 9.0 | 0.00 | 0.00 | 0.00 | 59 | 1015.3 |
| 20260506110731 | 55 | 268 | 1.0 | 2.0 | 0.00 | 0.00 | 0.00 | 60 | 1015.3 |
| 20260506110347 | 55 | 250 | 2.0 | 3.0 | 0.00 | 0.00 | 0.00 | 60 | 1015.4 |
| 20260506105348 | 55 | 249 | 5.0 | 9.0 | 0.00 | 0.00 | 0.00 | 59 | 1015.4 |
| 20260506105227 | 55 | 281 | 8.0 | 10.0 | 0.00 | 0.00 | 0.00 | 59 | 1015.4 |
| 20260506104349 | 55 | 162 | 1.0 | 1.0 | 0.00 | 0.00 | 0.00 | 59 | 1015.4 |
| 20260506103724 | 55 | 242 | 2.0 | 6.0 | 0.00 | 0.00 | 0.00 | 60 | 1015.4 |
| 20260506103350 | 54 | 281 | 0.0 | 6.0 | 0.00 | 0.00 | 0.00 | 60 | 1015.4 |
| 20260506102341 | 54 | 220 | 0.0 | 2.0 | 0.00 | 0.00 | 0.00 | 62 | 1015.4 |
| 20260506102231 | 54 | 99 | 1.0 | 1.0 | 0.00 | 0.00 | 0.00 | 62 | 1015.4 |
| 20260506101343 | 54 | 293 | 5.0 | 6.0 | 0.00 | 0.00 | 0.00 | 62 | 1015.4 |
| 20260506100727 | 54 | 293 | 2.0 | 3.0 | 0.00 | 0.00 | 0.00 | 64 | 1015.4 |
| 20260506100343 | 53 | 295 | 5.0 | 6.0 | 0.00 | 0.00 | 0.00 | 63 | 1015.4 |
| 20260506095344 | 53 | 220 | 1.0 | 3.0 | 0.00 | 0.00 | 0.00 | 64 | 1015.4 |
| 20260506095223 | 53 | 275 | 1.0 | 2.0 | 0.00 | 0.00 | 0.00 | 63 | 1015.4 |
| 20260506094345 | 53 | 253 | 0.0 | 1.0 | 0.00 | 0.00 | 0.00 | 64 | 1015.5 |
| 20260506093729 | 53 | 285 | 3.0 | 3.0 | 0.00 | 0.00 | 0.00 | 66 | 1015.5 |
| 20260506093345 | 53 | 38 | 0.0 | 1.0 | 0.00 | 0.00 | 0.00 | 67 | 1015.6 |
| 20260506092347 | 52 | 279 | 0.0 | 5.0 | 0.00 | 0.00 | 0.00 | 68 | 1015.5 |
| 20260506092226 | 52 | 280 | 0.0 | 3.0 | 0.00 | 0.00 | 0.00 | 68 | 1015.6 |
| 20260506091348 | 51 | 295 | 2.0 | 3.0 | 0.00 | 0.00 | 0.00 | 70 | 1015.5 |
| 20260506090722 | 51 | 295 | 2.0 | 3.0 | 0.00 | 0.00 | 0.00 | 70 | 1015.5 |
| 20260506090349 | 51 | 275 | 2.0 | 5.0 | 0.00 | 0.00 | 0.00 | 72 | 1015.5 |
| 20260506085350 | 50 | 290 | 5.0 | 6.0 | 0.00 | 0.00 | 0.00 | 72 | 1015.6 |
| 20260506085229 | 50 | 291 | 3.0 | 6.0 | 0.00 | 0.00 | 0.00 | 73 | 1015.6 |
| 20260506084341 | 50 | 292 | 2.0 | 5.0 | 0.00 | 0.00 | 0.00 | 73 | 1015.6 |
| 20260506083726 | 50 | 300 | 5.0 | 9.0 | 0.00 | 0.00 | 0.00 | 73 | 1015.6 |
| 20260506083342 | 50 | 312 | 2.0 | 7.0 | 0.00 | 0.00 | 0.00 | 73 | 1015.6 |
| 20260506082344 | 50 | 299 | 1.0 | 6.0 | 0.00 | 0.00 | 0.00 | 71 | 1015.5 |
| 20260506082222 | 50 | 287 | 0.0 | 3.0 | 0.00 | 0.00 | 0.00 | 72 | 1015.5 |
| 20260506081345 | 50 | 309 | 2.0 | 3.0 | 0.00 | 0.00 | 0.00 | 72 | 1015.4 |
| 20260506080729 | 50 | 293 | 1.0 | 2.0 | 0.00 | 0.00 | 0.00 | 72 | 1015.3 |
| 20260506080345 | 50 | 290 | 3.0 | 6.0 | 0.00 | 0.00 | 0.00 | 72 | 1015.3 |